Regional Weather Roundup
Issued by NWS

Home | Current Version | Previous Version | Text Only | Print | Product List | Glossary Off
Versions: 1 2 3 4 5 6 7 8 9 10 11 12 13 14 15 16 17 18 19 20 21 22 23 24 25 26 27 28 29 30 31 32 33 34 35 36 37 38 39 40 41 42 43 44 45 46 47 48 49 50

000
ASUS45 KCYS 160210
RWRWY

WYOMING REGIONAL WEATHER ROUNDUP
NATIONAL WEATHER SERVICE CHEYENNE WY
700 PM MST SUN JAN 15 2017

NOTE:  "FAIR" INDICATES FEW OR NO CLOUDS BELOW 12,000 FEET
WITH NO SIGNIFICANT WEATHER AND/OR OBSTRUCTIONS TO VISIBILITY.

WYZ001-160300-
YELLOWSTONE NATIONAL PARK

CITY           SKY/WX    TMP DP  RH WIND       PRES   REMARKS
LK YELLOWSTONE   N/A     -8 -12  83 CALM      30.09R
W YELLOWSTONE  NOT AVBL

$$
WYZ002>013-054>058-071-098>099-160300-
NORTHERN WYOMING

CITY           SKY/WX    TMP DP  RH WIND       PRES   REMARKS
JACKSON        CLEAR     -6  -8  92 CALM      30.13R
CODY           FAIR       5   1  83 S8        30.05R WCI  -8
GREYBULL       FAIR      -9 -14  78 CALM      30.10R
WORLAND        FAIR      -3  -7  82 CALM      30.06R
SHERIDAN       FAIR       7  -2  66 SW6       30.03R WCI  -3
BUFFALO        FAIR      22   1  40 CALM      30.01R
GILLETTE       FAIR      10   6  84 S3        30.02R
HULETT         FAIR      23   9  54 MISG      30.02S
NEWCASTLE      FAIR      23  14  68 NE3       30.03R

$$
WYZ014>020-022>026-101>103-160300-
CENTRAL WYOMING

CITY           SKY/WX    TMP DP  RH WIND       PRES   REMARKS
BIG PINEY      FAIR      -9 -12  87 E9        30.04S WCI -26
PINEDALE       FAIR     -15 -18  84 NW6       30.05S WCI -29
DUBOIS         NOT AVBL
LANDER         FAIR       6   1  80 W6        30.01R WCI  -4
RIVERTON       FAIR       1  -4  79 NW3       30.03S
CASPER         FAIR      20  17  88 W10       30.00R WCI   9
DOUGLAS        FAIR      24  17  74 CALM      30.00R

$$
WYZ021-027>030-104>119-160300-
SOUTHERN WYOMING

CITY           SKY/WX    TMP DP  RH WIND       PRES   REMARKS
EVANSTON       FAIR       8   3  80 SE5       30.04R WCI   0
ROCK SPRINGS   FAIR       4   0  83 W12       30.03S WCI -12
RAWLINS        FOG       16  13  88 CALM      30.00S VSB 1/2
LARAMIE        CLOUDY    20  17  88 NE7       29.95S WCI  11
CHEYENNE       CLOUDY    33  21  61 N6        29.96R WCI  28
TORRINGTON     CLOUDY    33  23  66 NW3       29.99R

$$



USA.gov is the U.S. government's official web portal to all federal, state and local government web resources and services.